Simultaneous Nadir Overpasses (SNOs) Predictions

Prediction of SNOs between AQUA and GOES-15 Satellite Orbit:

Table of predicted SNOs for the next 14.0 days since TLE Epoch: 1/6/2024
Index Date Time (AQUA) AQUA Lat,Lon GOES-15 Lat,Lon Distance(km) Time Diff (sec)
1 01/06/2024 10:03:02 -0.40, 59.25 0.06, 61.48 253.09 80
2 01/08/2024 09:47:43 0.40, 62.99 0.05, 61.51 169.13 80
3 01/08/2024 22:08:09 0.66, 58.04 -0.06, 61.41 383.32 80
4 01/10/2024 21:52:49 -0.13, 61.79 -0.05, 61.46 37.89 80
5 01/12/2024 21:37:29 -0.88, 65.55 -0.04, 61.51 458.73 80
6 01/13/2024 09:58:03 -0.18, 60.57 0.05, 61.63 121.50 80
7 01/15/2024 09:42:42 0.62, 64.32 0.05, 61.68 299.61 80
8 01/15/2024 22:03:09 0.42, 59.36 -0.05, 61.58 252.15 80
9 01/17/2024 21:47:47 -0.36, 63.12 -0.05, 61.63 168.93 80
10 01/18/2024 10:08:21 -0.74, 58.15 0.05, 61.77 412.14 80
